Regional Weather Roundup
Issued by NWS

Home | Current Version | Previous Version | Graphics & Text | Print | Product List | Glossary On
Versions: 1 2 3 4 5 6 7 8 9 10 11 12 13 14 15 16 17 18 19 20 21 22 23 24 25 26 27 28 29 30 31 32 33 34 35 36 37 38 39 40 41 42 43 44 45 46 47 48 49 50
000
ASUS43 KLSX 230707
RWRMO

WEATHER SUMMARY FOR MISSOURI
NATIONAL WEATHER SERVICE SPRINGFIELD MO
200 AM CDT TUE AUG 23 2016

NOTE: "FAIR" INDICATES FEW OR NO CLOUDS BELOW 12,000 FEET WITH NO
       SIGNIFICANT WEATHER AND/OR OBSTRUCTIONS TO VISIBILITY.
       CURRENT SKY AND/OR WEATHER CONDITIONS ARE NOT AVAILABLE FOR
       CHILLICOTHE AND FARMINGTON.

MOZ001>031-035>038-043-044-053-054-230800-
...NORTHERN AND WESTERN MISSOURI...

CITY           SKY/WX    TMP DP  RH WIND       PRES   REMARKS
KANSAS CTY INT CLEAR     69  59  70 S12       30.05F
KANSAS C DTWN  CLEAR     73  60  63 S10       30.05F
LEE`S SUMMIT   PTCLDY    68  60  75 S13       30.08F
ST JOSEPH      CLEAR     68  60  75 S7        30.04F
CHILLICOTHE      N/A     66  61  84 SE5       30.09F
KIRKSVILLE     CLEAR     60  57  89 S7        30.12S

$$
MOZ066>068-077>081-088>096-101>105-230800-
...SOUTHWEST MISSOURI...

CITY           SKY/WX    TMP DP  RH WIND       PRES   REMARKS
SPRINGFIELD    CLEAR     69  63  81 S9        30.12S
JOPLIN         MOCLDY    71  65  81 S8        30.09F
BRANSON        PTCLDY    68  66  94 SE5       30.14F

$$
MOZ032>034-039>042-045>050-055>058-069>072-230800-
...CENTRAL MISSOURI...

CITY           SKY/WX    TMP DP  RH WIND       PRES   REMARKS
COLUMBIA       CLEAR     64  61  90 SE7       30.13F
JEFFERSON CITY CLEAR     66  61  84 E3        30.13S
ROLLA          CLEAR     62  59  90 SE5       30.14F
SEDALIA        CLEAR     65  60  84 S7        30.12S
WHITEMAN AFB   PTCLDY    66  65  95 S9        30.08F
OSAGE BEACH    CLEAR     65  61  87 S6        30.14F

$$
MOZ051-052-059>065-230800-
...EAST CENTRAL MISSOURI...

CITY           SKY/WX    TMP DP  RH WIND       PRES   REMARKS
ST LOUIS INTL  CLEAR     71  60  68 S7        30.16F
SPIRIT OF STL  CLEAR     65  61  87 S3        30.14F
ST CHARLES     CLEAR     61  60  97 NE3       30.15F

$$
MOZ072>076-082>087-097>100-106>115-230800-
...SOUTH CENTRAL AND SOUTHEAST MISSOURI...

CITY           SKY/WX    TMP DP  RH WIND       PRES   REMARKS
CAPE GIRARDEAU CLEAR     63  61  93 E3        30.17S
FARMINGTON     CLOUDY    60  59  96 CALM      30.18F
POPLAR BLUFF   CLOUDY    67  65  93 N3        30.15F
WEST PLAINS    CLOUDY    68  60  75 CALM      30.18S

$$



USA.gov is the U.S. government's official web portal to all federal, state and local government web resources and services.